"Pseudo-MPEC" for JA0048

Created 2019 Jun 20 19:07:12 UT using Find_Orb

Click here for an explanation of pseudo-MPECs

 
 Astrometry: 
     JA0048   C2019 04 051.CQ`@q0WD74y`([AstrometryVfa;fVU\8cMWr#1)1/[KO,[`*LW93
     JA0048   C2019 04 05N]f0wvl6redacted;HxNeL_]Oqg:Z?/bTIFx)lbGi_'\Ur^TF#Z`W93
     JA0048   C2019 04 05ac1(Wk^vTFP#FVUOPFWclick2\2*@@*wj^=here!@tFXpXX$VgS3W93
     JA0048   C2019 04 07+*Y;O5I*2$uKAPEw$fQ\g/awwn0\RCyH8(HMQS:/(?QXG/v3aYTJW93
     JA0048   C2019 04 07tRGB*forO`]wReZpSNZ5m1GeXWbkruFBIRjknN@.era*ruT%I4:EW93
     JA0048   C2019 04 07a[WrCIjIggU13#_-f$%'.wbKwpAv2T*WOexplanationZ`5MM8fZW93

Station data:
(W93) Korea Microlensing Telescope Network-CTIO  (S30.167216 W70.804000)
   Chile.  Observer Y. JeongAhn. 1.6-m f/3.22 reflector + CCD.

Orbital elements:  JA0048
   Perihelion 2116 Jul 23.566607 +/- 18403 TT = 13:35:54 (JD 2494117.066607)
Epoch 2019 Apr  7.0 TT = JDT 2458580.5                        AutoNEOCP
M 214.31131676 +/- 110              (J2000 ecliptic)
n   0.00409968 +/- 0.0022           Peri.  160.38076 +/- 90
a  38.6636170 +/- 13.8              Node   189.80211 +/- 4.5
e   0.1366800 +/- 0.186             Incl.    2.95117 +/- 59
P 240.41                   H  6.5   G  0.15   U  9.2  SR
q 33.3790711 +/- 12.9    Q 43.9481630 +/- 85.8
From 6 observations 2019 Apr. 5-7; mean residual 0".29
Residuals in arcseconds: 
190405 W93  .39-  .18-    190405 W93  .07+  .26+    190407 W93  .16+  .04-    
190405 W93  .31+  .07-    190407 W93  .47+  .10-    190407 W93  .59-  .10+    

Ephemerides (geocentric):
Date (UTC) HH   RA              Dec         delta   r     elong  mag " sig PA
---- -- -- --  -------------   -----------  ------ ------ -----  --- ---- ---
2019 06 20 19  12 58 31.464   -05 50 42.02  42.906 43.211 106.8 23.0  148  23
2019 06 20 20  12 58 31.433   -05 50 41.83  42.907 43.211 106.8 23.0  148  23
2019 06 20 21  12 58 31.402   -05 50 41.63  42.907 43.211 106.7 23.0  148  23
2019 06 20 22  12 58 31.371   -05 50 41.43  42.908 43.211 106.7 23.0  148  23
2019 06 20 23  12 58 31.340   -05 50 41.24  42.909 43.211 106.7 23.0  149  23
2019 06 21 00  12 58 31.310   -05 50 41.04  42.909 43.211 106.6 23.0  149  23
2019 06 21 01  12 58 31.279   -05 50 40.85  42.910 43.211 106.6 23.0  149  23
2019 06 21 02  12 58 31.249   -05 50 40.66  42.911 43.211 106.5 23.0  149  23
2019 06 21 03  12 58 31.219   -05 50 40.47  42.911 43.211 106.5 23.0  150  23
2019 06 21 04  12 58 31.189   -05 50 40.28  42.912 43.211 106.5 23.0  150  23
2019 06 21 05  12 58 31.159   -05 50 40.09  42.913 43.211 106.4 23.0  150  23
2019 06 21 06  12 58 31.130   -05 50 39.90  42.913 43.211 106.4 23.0  150  23
2019 06 21 07  12 58 31.100   -05 50 39.71  42.914 43.211 106.3 23.0  150  23
2019 06 21 08  12 58 31.071   -05 50 39.52  42.915 43.211 106.3 23.0  151  23
2019 06 21 09  12 58 31.041   -05 50 39.34  42.915 43.211 106.3 23.0  151  23
2019 06 21 10  12 58 31.012   -05 50 39.15  42.916 43.211 106.2 23.0  151  23
2019 06 21 11  12 58 30.983   -05 50 38.97  42.917 43.211 106.2 23.0  151  23
2019 06 21 12  12 58 30.955   -05 50 38.78  42.917 43.211 106.1 23.0  152  23
2019 06 21 13  12 58 30.926   -05 50 38.60  42.918 43.211 106.1 23.0  152  23
2019 06 21 14  12 58 30.897   -05 50 38.42  42.919 43.211 106.1 23.0  152  23
2019 06 21 15  12 58 30.869   -05 50 38.24  42.919 43.211 106.0 23.0  152  23
2019 06 21 16  12 58 30.841   -05 50 38.06  42.920 43.211 106.0 23.0  153  23
2019 06 21 17  12 58 30.813   -05 50 37.88  42.921 43.211 105.9 23.0  153  23
2019 06 21 18  12 58 30.785   -05 50 37.70  42.921 43.211 105.9 23.0  153  23
2019 06 21 19  12 58 30.757   -05 50 37.52  42.922 43.211 105.9 23.0  153  23
2019 06 21 20  12 58 30.729   -05 50 37.35  42.923 43.211 105.8 23.0  153  23
2019 06 21 21  12 58 30.702   -05 50 37.17  42.923 43.211 105.8 23.0  154  23
2019 06 21 22  12 58 30.674   -05 50 37.00  42.924 43.211 105.7 23.0  154  23
2019 06 21 23  12 58 30.647   -05 50 36.82  42.925 43.211 105.7 23.0  154  23
2019 06 22 00  12 58 30.620   -05 50 36.65  42.925 43.211 105.7 23.0  154  23
2019 06 22 01  12 58 30.593   -05 50 36.48  42.926 43.211 105.6 23.0  155  23
2019 06 22 02  12 58 30.566   -05 50 36.31  42.927 43.211 105.6 23.0  155  23
2019 06 22 03  12 58 30.539   -05 50 36.14  42.927 43.211 105.5 23.0  155  23
2019 06 22 04  12 58 30.513   -05 50 35.97  42.928 43.211 105.5 23.0  155  23
2019 06 22 05  12 58 30.487   -05 50 35.80  42.929 43.211 105.5 23.0  156  23
2019 06 22 06  12 58 30.460   -05 50 35.63  42.929 43.211 105.4 23.0  156  23
2019 06 22 07  12 58 30.434   -05 50 35.47  42.930 43.211 105.4 23.0  156  23
2019 06 22 08  12 58 30.408   -05 50 35.30  42.931 43.211 105.3 23.0  156  23
2019 06 22 09  12 58 30.382   -05 50 35.14  42.931 43.211 105.3 23.0  156  23
2019 06 22 10  12 58 30.357   -05 50 34.97  42.932 43.211 105.3 23.0  157  23
2019 06 22 11  12 58 30.331   -05 50 34.81  42.933 43.211 105.2 23.0  157  23
2019 06 22 12  12 58 30.306   -05 50 34.65  42.933 43.211 105.2 23.0  157  23
2019 06 22 13  12 58 30.281   -05 50 34.49  42.934 43.211 105.1 23.0  157  23
2019 06 22 14  12 58 30.255   -05 50 34.33  42.935 43.211 105.1 23.0  158  23
2019 06 22 15  12 58 30.230   -05 50 34.17  42.935 43.211 105.1 23.0  158  23
2019 06 22 16  12 58 30.206   -05 50 34.01  42.936 43.211 105.0 23.0  158  23
2019 06 22 17  12 58 30.181   -05 50 33.85  42.937 43.211 105.0 23.0  158  23
2019 06 22 18  12 58 30.156   -05 50 33.69  42.937 43.211 104.9 23.0  159  23